Location: Newark
(47.5989°N, 4.6950°E)
Time: 02:29:58
(UTC+00:00)

ISS - Pass Details

Date: 22 November 2019
Orbit: 411 x 421 km, 51.6° (Epoch: 08 December)

Event Time Altitude Azimuth Distance (km) Brightness Sun altitude
Rises 17:23:52 0° 198° (SSW) 2,343 0.5 -14.2°
Reaches altitude 10° 17:26:30 10° 175° (S) 1,488 -0.9 -14.6°
Maximum altitude 17:28:37 16° 136° (SE) 1,189 -1.8 -15.0°
Enters shadow 17:28:45 16° 133° (SE) 1,191 -1.8 -15.0°
